{"data":{"norad_id":51865,"intl_designator":"2022-022P","name":"STARLINK-3503","alt_names":[],"object_type":"PAYLOAD","status":"ACTIVE","operator":null,"country":"US","launch_date":"2022-03-03","launch_site_code":"AFETR","launch_vehicle":null,"mission":null,"orbit_class":"UNKNOWN","rcs_meters":null,"size_class":null,"mass_kg":null,"dimensions":null,"purposes":["comms"],"wikipedia_slug":null,"has_3d_model":false,"image_url":null,"decayed_at":null,"tle_current":{"epoch":"2026-05-25T01:46:20.200224Z","epoch_age_seconds":69006,"freshness":"FRESH","line1":"1 51865U 22022P   26145.07384491 -.00001262  00000+0 -61189-4 0  9998","line2":"2 51865  53.2154  26.2170 0001336 106.8595 253.2544 15.08845233234645","mean_motion":15.08845233,"eccentricity":0.0001336,"inclination_deg":53.2154,"raan_deg":26.217,"arg_perigee_deg":106.8595,"mean_anomaly_deg":253.2544,"bstar":-6.1189e-5,"rev_number":23464,"period_min":95.437223679786,"perigee_km":538.80316713981,"apogee_km":540.65162050584,"semimajor_km":6917.8643938228,"source":"CELESTRAK","updated_at":"2026-05-25T13:38:16.962013Z"}}}